Location: Liscomb Game Sanctuary
(45.1633°N, 62.5575°W)
Time: 22:15:33
(UTC-04:00)

Amateur Radio Satellites - All Passes

Search period start: 20 November 2014 21:45
Search period end: 21 November 2014 21:45
Location: Liscomb Game Sanctuary, 45.1633°N, 62.5575°W

Satellite Date Start Highest point End Downlink Frequencies (MHz)
Time Altitude Azimuth
AIST 1 20 Nov 21:47:39 21:50:36 17° 292° (WNW) 21:53:34
TIGRISAT 20 Nov 21:49:05 21:51:36 15° 91° (E) 21:54:08 435.000
UNISAT 6 20 Nov 21:58:48 22:01:58 19° 93° (E) 22:05:10 437.425
AAUSAT CUBESAT 2 20 Nov 22:00:40 22:02:21 12° 271° (W) 22:04:02 437.432
CINEMA 3 20 Nov 22:02:46 22:06:26 24° 265° (W) 22:10:00 145.822/145.860
BUGSAT 1 20 Nov 22:05:41 22:07:16 12° 89° (E) 22:08:50 437.445
BEESAT 3 20 Nov 22:08:05 22:12:12 81° 306° (NW) 22:16:24 437.485
HUMSAT D 20 Nov 22:09:03 22:13:11 62° 259° (W) 22:17:18 437.325/437.525
POLYITAN 1 20 Nov 22:15:54 22:19:01 20° 93° (E) 22:22:06 437.675
VERMONT LUNAR 20 Nov 22:16:16 22:18:00 13° 208° (SSW) 22:19:43 437.305
CUBEBUG 2 20 Nov 22:16:42 22:20:19 26° 265° (W) 22:23:52 437.445
FUNcube-1 20 Nov 22:18:08 22:21:57 32° 263° (W) 22:25:45 145.935
CUBEBUG 1 20 Nov 22:18:35 22:23:00 64° 73° (ENE) 22:27:25 437.445
BEESAT 2 20 Nov 22:18:36 22:22:43 71° 307° (NW) 22:26:56 435.950
QB50P2 20 Nov 22:20:16 22:23:35 22° 94° (E) 22:26:52 145.880/145.840
DOVE 4 20 Nov 22:22:39 22:24:07 11° 271° (W) 22:25:34 437.250
ANTELSAT 20 Nov 22:26:09 22:30:13 36° 98° (E) 22:34:20 437.575/2403.000
AIST 2 20 Nov 22:26:32 22:30:45 74° 123° (ESE) 22:35:03 435.215
UKube-1 20 Nov 22:26:48 22:29:01 14° 270° (W) 22:31:15 .
UWE-3 20 Nov 22:29:49 22:33:08 22° 266° (W) 22:36:25 435.000/436.395/437.385
DUCHIFAT 1 20 Nov 22:30:03 22:33:40 27° 95° (E) 22:37:15 145.980
SPROUT 20 Nov 22:32:00 22:35:18 22° 65° (ENE) 22:38:36 437.525
ESTCUBE 1 20 Nov 22:34:20 22:38:53 86° 256° (WSW) 22:43:29 437.505/2401.250
DELFI C3 20 Nov 22:36:29 22:37:33 11° 272° (W) 22:38:37 145.870
50 SAT 20 Nov 22:37:54 22:41:37 35° 263° (W) 22:45:21 437.505
TISAT 1 20 Nov 22:40:17 22:44:01 29° 68° (ENE) 22:47:44 437.305
NANOSAT C BR1 20 Nov 22:48:10 22:52:12 42° 99° (E) 22:56:12 145.865
QB50P1 20 Nov 22:57:09 23:01:18 53° 100° (E) 23:05:25 145.935-145.965
VELOX 1 20 Nov 22:58:41 23:01:59 20° 267° (W) 23:05:18 145.980
PCSat 20 Nov 23:00:03 23:04:10 22° 321° (NW) 23:08:18 145.827
BEESAT 20 Nov 23:06:53 23:08:28 12° 56° (NE) 23:10:03 436.000
AUBIESAT-1 20 Nov 23:13:59 23:17:18 26° 59° (ENE) 23:20:51 437.475
M-CUBED/EXP-1 PRIME 20 Nov 23:14:52 23:18:16 28° 60° (ENE) 23:21:57 437.505
RS-15 20 Nov 23:15:19 23:24:58 33° 22° (NNE) 23:34:53 29.354- 29.394
POPSAT HIP 1 20 Nov 23:21:05 23:25:20 84° 285° (WNW) 23:29:33 437.405
AISAT 20 Nov 23:23:12 23:24:47 12° 271° (W) 23:26:22 437.250
TIGRISAT 20 Nov 23:24:26 23:28:42 57° 287° (WNW) 23:33:03 435.000
UNISAT 6 20 Nov 23:34:49 23:38:58 44° 289° (WNW) 23:43:12 437.425
BUGSAT 1 20 Nov 23:39:08 23:43:14 63° 287° (WNW) 23:47:15 437.445
BEESAT 3 20 Nov 23:48:44 23:51:08 15° 326° (NW) 23:53:33 437.485
POLYITAN 1 20 Nov 23:51:11 23:55:09 40° 290° (WNW) 23:59:05 437.675
QB50P2 20 Nov 23:55:44 23:59:37 36° 291° (WNW) 00:03:29 145.880/145.840
ITUPSAT 1 20 Nov 23:55:44 23:59:55 31° 66° (ENE) 00:04:08 437.325
CUBEBUG 1 20 Nov 23:57:30 23:59:48 14° 270° (W) 00:02:07 437.445
BEESAT 2 20 Nov 23:59:39 00:01:48 14° 327° (NNW) 00:03:59 435.950
ANTELSAT 21 Nov 00:03:21 00:06:52 24° 294° (WNW) 00:10:26 437.575/2403.000
DUCHIFAT 1 21 Nov 00:05:52 00:09:32 29° 292° (WNW) 00:13:10 145.980
AIST 2 21 Nov 00:06:50 00:09:53 19° 323° (NW) 00:12:58 435.215
SPROUT 21 Nov 00:07:05 00:11:10 40° 262° (W) 00:15:16 437.525
SWISSCUBE 21 Nov 00:08:38 00:13:10 43° 69° (ENE) 00:17:43 437.505
TISAT 1 21 Nov 00:16:09 00:19:50 28° 264° (W) 00:23:31 437.305
Oscar 19 21 Nov 00:18:36 00:19:52 11° 87° (E) 00:21:09 437.125/150
NANOSAT C BR1 21 Nov 00:24:46 00:27:49 20° 296° (WNW) 00:30:51 145.865
CUSAT 1 21 Nov 00:27:50 00:31:44 75° 79° (E) 00:36:59 437.405
DANDE 21 Nov 00:28:02 00:31:44 62° 79° (E) 00:36:43 436.750
QB50P1 21 Nov 00:34:10 00:36:48 16° 298° (WNW) 00:39:26 145.935-145.965
STARS 21 Nov 00:39:19 00:41:20 13° 59° (ENE) 00:43:21 437.465
BEESAT 21 Nov 00:40:44 00:45:31 81° 74° (ENE) 00:50:21 436.000
AUBIESAT-1 21 Nov 00:48:40 00:52:11 32° 259° (W) 00:56:01 437.475
M-CUBED/EXP-1 PRIME 21 Nov 00:49:54 00:53:18 28° 260° (W) 00:56:59 437.505
KKS-1 21 Nov 01:05:20 01:09:18 32° 67° (ENE) 01:13:16 437.445
RS-15 21 Nov 01:28:22 01:39:34 74° 51° (NE) 01:51:14 29.354- 29.394
ISS 21 Nov 01:30:45 01:33:47 35° 141° (SE) 01:36:50 145.825
ITUPSAT 1 21 Nov 01:33:25 01:37:45 33° 264° (W) 01:42:08 437.325
MaSat-1 21 Nov 01:39:38 01:41:57 69° 61° (ENE) 01:44:16 437.345
SWISSCUBE 21 Nov 01:47:25 01:51:13 23° 267° (W) 01:55:02 437.505
Oscar 19 21 Nov 01:54:47 01:59:59 84° 104° (ESE) 02:05:09 437.125/150
HORYU 2 21 Nov 02:10:44 02:11:50 11° 88° (E) 02:12:56 437.375
STARS 21 Nov 02:12:48 02:17:14 77° 257° (WSW) 02:21:40 437.465
DANDE 21 Nov 02:13:45 02:15:09 11° 268° (W) 02:16:39 436.750
CUSAT 1 21 Nov 02:14:07 02:14:45 10° 269° (W) 02:15:24 437.405
YUBILEINY 21 Nov 02:20:43 02:28:42 41° 86° (E) 02:36:41 435.215
BEESAT 21 Nov 02:22:07 02:23:59 12° 272° (W) 02:25:51 436.000
Gurwin Techsat 1B 21 Nov 02:33:29 02:38:35 45° 99° (E) 02:43:38 435.225
ITAMSAT 1 21 Nov 02:34:57 02:40:11 78° 104° (ESE) 02:45:21 435.822/435.867
KKS-1 21 Nov 02:42:08 02:45:57 27° 265° (W) 02:49:47 437.445
AO-7 21 Nov 02:48:37 02:53:08 15° 87° (E) 02:57:38 29.400- 29.500
MOZHAYETS 4 21 Nov 03:06:22 03:09:28 18° 62° (ENE) 03:12:35
ISS 21 Nov 03:07:14 03:10:24 44° 339° (NNW) 03:13:35 145.825
Oscar 19 21 Nov 03:35:47 03:38:38 15° 302° (WNW) 03:41:29 437.125/150
RS-15 21 Nov 03:41:26 03:51:09 36° 253° (WSW) 04:01:15 29.354- 29.394
HORYU 2 21 Nov 03:44:36 03:49:06 81° 285° (WNW) 03:53:35 437.375
Gurwin Techsat 1B 21 Nov 04:13:54 04:18:19 27° 297° (WNW) 04:22:42 435.225
ITAMSAT 1 21 Nov 04:15:53 04:19:02 17° 302° (WNW) 04:22:11 435.822/435.867
YUBILEINY 21 Nov 04:16:52 04:25:20 49° 287° (WNW) 04:33:49 435.215
PCSat 21 Nov 04:17:57 04:22:04 21° 39° (NE) 04:26:10 145.827
STRAND 1 21 Nov 04:25:31 04:27:31 12° 55° (NE) 04:29:32 437.568
CUBESAT XI-V 21 Nov 04:33:09 04:34:53 12° 58° (ENE) 04:36:37 437.345
AO-7 21 Nov 04:38:55 04:47:19 74° 106° (ESE) 04:55:40 29.400- 29.500
MOZHAYETS 4 21 Nov 04:41:47 04:46:17 55° 260° (W) 04:50:50
PRISM 21 Nov 04:44:35 04:48:23 35° 69° (ENE) 04:52:15 437.425
ISS 21 Nov 04:44:47 04:47:36 25° 359° (N) 04:50:26 145.825
SO-50 21 Nov 04:48:39 04:52:50 38° 117° (ESE) 04:57:09 436.795
BEESAT 3 21 Nov 04:48:51 04:51:55 19° 38° (NE) 04:54:57 437.485
JAS-2 21 Nov 04:56:18 05:03:18 43° 95° (E) 05:09:33 435.910
BEESAT 2 21 Nov 04:59:30 05:02:46 21° 40° (NE) 05:06:00 435.950
AIST 2 21 Nov 05:09:08 05:11:56 17° 35° (NE) 05:14:43 435.215
CUTE-I 21 Nov 05:14:31 05:17:18 14° 88° (E) 05:20:03 437.470
HORYU 2 21 Nov 05:24:15 05:25:01 10° 303° (WNW) 05:25:47 437.375
PCSat 21 Nov 06:00:42 06:06:10 83° 240° (WSW) 06:11:35 145.827
STRAND 1 21 Nov 06:00:43 06:05:52 78° 74° (ENE) 06:11:02 437.568
CUBESAT XI-V 21 Nov 06:06:51 06:11:34 86° 76° (ENE) 06:16:20 437.345
Cubesat XI-IV 21 Nov 06:09:43 06:14:50 45° 99° (E) 06:19:54 437.490
AIST 1 21 Nov 06:14:40 06:17:26 16° 67° (ENE) 06:20:12
PRISM 21 Nov 06:20:43 06:24:02 23° 266° (W) 06:27:24 437.425
ISS 21 Nov 06:21:39 06:24:49 41° 19° (NNE) 06:27:59 145.825
O/OREOS (USA 219) 21 Nov 06:22:25 06:26:05 25° 103° (ESE) 06:29:45 437.305
YUBILEINY 21 Nov 06:22:58 06:24:49 11° 312° (NW) 06:26:41 435.215
BEESAT 3 21 Nov 06:26:24 06:30:35 68° 238° (WSW) 06:34:43 437.485
SO-50 21 Nov 06:29:20 06:33:27 32° 317° (NW) 06:37:41 436.795
AO-7 21 Nov 06:32:30 06:39:24 30° 307° (NW) 06:46:19 29.400- 29.500
BEESAT 2 21 Nov 06:37:15 06:41:25 58° 239° (WSW) 06:45:30 435.950
JAS-2 21 Nov 06:41:22 06:48:17 42° 296° (WNW) 06:54:31 435.910
AIST 2 21 Nov 06:46:52 06:51:12 90° 237° (WSW) 06:55:28 435.215
CUTE-I 21 Nov 06:52:40 06:58:01 81° 286° (WNW) 07:03:19 437.470
STRAND 1 21 Nov 07:42:57 07:45:39 14° 271° (W) 07:48:20 437.568
PCSat 21 Nov 07:46:38 07:48:41 12° 258° (WSW) 07:50:44 145.827
CUBESAT XI-V 21 Nov 07:48:25 07:49:40 11° 273° (W) 07:50:55 437.345
Cubesat XI-IV 21 Nov 07:50:15 07:54:43 28° 297° (WNW) 07:59:08 437.490
AIST 1 21 Nov 07:51:11 07:55:28 52° 266° (W) 07:59:42
CANX-2 21 Nov 07:57:44 07:59:39 13° 89° (E) 08:01:34 2200.000
ISS 21 Nov 07:58:22 08:01:29 39° 218° (SW) 08:04:36 145.825
O/OREOS (USA 219) 21 Nov 08:01:09 08:05:18 36° 301° (WNW) 08:09:28 437.305
GONETS M04 21 Nov 08:09:42 08:17:49 44° 87° (E) 08:26:00
COMPASS 1 21 Nov 08:16:46 08:18:58 14° 90° (E) 08:21:10 437.405
AIST 2 21 Nov 08:28:26 08:29:07 10° 253° (WSW) 08:29:48 435.215
CUTE 1.7 & AOD 2 21 Nov 08:31:46 08:35:24 27° 95° (E) 08:39:02 437.475
CUTE-I 21 Nov 08:34:49 08:37:14 13° 305° (NW) 08:39:39 437.470
DOVE 4 21 Nov 08:39:33 08:42:09 16° 91° (E) 08:44:46 437.250
POPSAT HIP 1 21 Nov 08:43:49 08:45:04 11° 59° (ENE) 08:46:20 437.405
TIGRISAT 21 Nov 08:50:31 08:53:22 18° 63° (ENE) 08:56:12 435.000
Oscar 11 21 Nov 08:50:57 08:53:29 15° 90° (E) 08:56:00 145.826/435.025
GOMX 1 21 Nov 08:55:35 08:59:19 31° 96° (E) 09:03:01 467.674
BRITE-PL 21 Nov 08:56:17 09:00:18 43° 98° (E) 09:04:14 437.365/2234.400
BUGSAT 1 21 Nov 08:58:22 09:00:26 13° 61° (ENE) 09:02:31 437.445
UNISAT 6 21 Nov 09:00:29 09:03:48 22° 65° (ENE) 09:07:07 437.425
HO-68 21 Nov 09:01:34 09:08:40 59° 102° (ESE) 09:15:42 435.675
DX 1 21 Nov 09:05:03 09:08:09 19° 93° (E) 09:11:13 434.975-435.025
SEEDS 21 Nov 09:11:26 09:15:40 62° 101° (E) 09:19:53 437.485
POLYITAN 1 21 Nov 09:11:41 09:14:55 21° 65° (ENE) 09:18:08 437.675
QB50P2 21 Nov 09:15:48 09:19:10 23° 66° (ENE) 09:22:33 145.880/145.840
DUCHIFAT 1 21 Nov 09:25:08 09:28:47 28° 67° (ENE) 09:32:25 145.980
ANTELSAT 21 Nov 09:27:43 09:31:44 41° 70° (ENE) 09:35:46 437.575/2403.000
ZACube-1 21 Nov 09:28:44 09:31:24 16° 92° (E) 09:34:05 437.345
CANX-2 21 Nov 09:31:47 09:36:02 64° 286° (WNW) 09:40:16 2200.000
AISAT 21 Nov 09:34:26 09:36:23 13° 89° (E) 09:38:19 437.250
AAUSAT CUBESAT 2 21 Nov 09:39:22 09:43:36 87° 284° (WNW) 09:47:50 437.432
NANOSAT C BR1 21 Nov 09:43:09 09:47:11 42° 71° (ENE) 09:51:13 145.865
COMPASS 1 21 Nov 09:50:55 09:55:05 58° 287° (WNW) 09:59:15 437.405
QB50P1 21 Nov 09:52:08 09:56:18 53° 72° (ENE) 10:00:28 145.935-145.965
HUMSAT D 21 Nov 09:52:40 09:55:33 18° 92° (E) 09:58:25 437.325/437.525
CINEMA 3 21 Nov 09:54:41 09:58:49 64° 101° (E) 10:03:02 145.822/145.860
FUNcube-1 21 Nov 10:04:23 10:08:18 38° 98° (E) 10:12:15 145.935
CUBEBUG 2 21 Nov 10:05:01 10:09:08 52° 100° (E) 10:13:17 437.445
GONETS M04 21 Nov 10:06:16 10:14:36 46° 288° (WNW) 10:23:03
CUTE 1.7 & AOD 2 21 Nov 10:07:35 10:11:20 30° 292° (WNW) 10:15:05 437.475
CUBEBUG 1 21 Nov 10:09:30 10:09:34 10° 87° (E) 10:09:38 437.445
UKube-1 21 Nov 10:10:09 10:14:32 87° 105° (ESE) 10:18:52 .
DELFI C3 21 Nov 10:11:53 10:16:03 87° 282° (WNW) 10:20:11 145.870
POPSAT HIP 1 21 Nov 10:16:03 10:20:20 86° 256° (WSW) 10:24:38 437.405
DOVE 4 21 Nov 10:16:15 10:20:14 46° 288° (WNW) 10:24:14 437.250
UWE-3 21 Nov 10:16:37 10:20:47 61° 101° (E) 10:25:00 435.000/436.395/437.385
50 SAT 21 Nov 10:17:03 10:20:31 27° 95° (E) 10:23:58 437.505
TIGRISAT 21 Nov 10:25:38 10:29:47 49° 260° (W) 10:33:56 435.000
Oscar 11 21 Nov 10:25:45 10:30:00 56° 287° (WNW) 10:34:15 145.826/435.025
ESTCUBE 1 21 Nov 10:26:24 10:29:29 18° 91° (E) 10:32:32 437.505/2401.250
BUGSAT 1 21 Nov 10:31:09 10:35:25 70° 258° (WSW) 10:39:41 437.445
GOMX 1 21 Nov 10:34:01 10:37:22 24° 294° (WNW) 10:40:42 467.674
BRITE-PL 21 Nov 10:35:42 10:38:32 18° 297° (WNW) 10:41:19 437.365/2234.400
UNISAT 6 21 Nov 10:36:26 10:40:26 37° 262° (W) 10:44:25 437.425
DX 1 21 Nov 10:40:28 10:44:38 44° 290° (WNW) 10:48:45 434.975-435.025
VELOX 1 21 Nov 10:46:12 10:50:38 69° 102° (ESE) 10:55:02 145.980
POLYITAN 1 21 Nov 10:46:37 10:50:38 40° 262° (W) 10:54:40 437.675
SEEDS 21 Nov 10:48:40 10:51:02 15° 298° (WNW) 10:53:23 437.485
HO-68 21 Nov 10:49:51 10:56:00 32° 301° (WNW) 11:02:08 435.675
QB50P2 21 Nov 10:50:59 10:54:56 36° 263° (W) 10:58:53 145.880/145.840
DUCHIFAT 1 21 Nov 11:00:52 11:04:36 29° 264° (W) 11:08:21 145.980
SHINDAISAT 21 Nov 11:00:55 11:02:00 13° 117° (ESE) 11:03:05 437.305
ZACube-1 21 Nov 11:04:01 11:08:03 48° 288° (WNW) 11:12:08 437.345
ANTELSAT 21 Nov 11:05:38 11:08:45 19° 267° (W) 11:11:52 437.575/2403.000
AISAT 21 Nov 11:09:05 11:13:31 69° 286° (WNW) 11:17:54 437.250
NANOSAT C BR1 21 Nov 11:20:14 11:23:17 19° 267° (W) 11:26:20 145.865
HUMSAT D 21 Nov 11:27:39 11:31:34 42° 289° (WNW) 11:35:30 437.325/437.525
QB50P1 21 Nov 11:29:59 11:32:31 15° 269° (W) 11:35:04 145.935-145.965
CINEMA 3 21 Nov 11:33:32 11:35:35 14° 298° (WNW) 11:37:38 145.822/145.860
Oscar 19 21 Nov 11:36:13 11:40:01 22° 61° (ENE) 11:43:50 437.125/150
SO-50 21 Nov 11:38:19 11:41:14 16° 31° (NNE) 11:44:10 436.795
FUNcube-1 21 Nov 11:41:18 11:44:28 21° 295° (WNW) 11:47:39 145.935
CUBEBUG 1 21 Nov 11:42:09 11:46:34 83° 285° (WNW) 11:50:55 437.445
CUBEBUG 2 21 Nov 11:42:54 11:45:29 16° 297° (WNW) 11:48:04 437.445
UKube-1 21 Nov 11:48:38 11:50:01 11° 302° (WNW) 11:51:25 .
SPROUT 21 Nov 11:52:04 11:55:51 30° 96° (E) 11:59:36 437.525
50 SAT 21 Nov 11:52:22 11:55:48 27° 292° (WNW) 11:59:15 437.505
UWE-3 21 Nov 11:54:40 11:56:54 14° 298° (WNW) 11:59:08 435.000/436.395/437.385
TISAT 1 21 Nov 11:58:49 12:02:48 39° 98° (E) 12:06:45 437.305
ESTCUBE 1 21 Nov 12:02:14 12:06:40 51° 289° (WNW) 12:11:04 437.505/2401.250
ITAMSAT 1 21 Nov 12:17:21 12:21:14 22° 61° (ENE) 12:25:07 435.822/435.867
Gurwin Techsat 1B 21 Nov 12:20:07 12:22:44 14° 56° (NE) 12:25:20 435.225
VELOX 1 21 Nov 12:24:18 12:26:41 15° 300° (WNW) 12:29:05 145.980
YUBILEINY 21 Nov 12:28:13 12:34:45 23° 60° (ENE) 12:41:13 435.215
AUBIESAT-1 21 Nov 12:29:24 12:32:51 19° 96° (E) 12:36:17 437.475
M-CUBED/EXP-1 PRIME 21 Nov 12:30:38 12:34:21 21° 97° (E) 12:38:04 437.505
SHINDAISAT 21 Nov 12:31:49 12:32:54 13° 314° (NW) 12:34:00 437.305
BEESAT 21 Nov 12:40:13 12:43:30 18° 91° (E) 12:46:46 436.000
HORYU 2 21 Nov 13:11:03 13:13:27 15° 60° (ENE) 13:15:52 437.375
Oscar 19 21 Nov 13:13:58 13:18:58 55° 259° (W) 13:24:01 437.125/150
SO-50 21 Nov 13:17:52 13:22:43 65° 51° (NE) 13:27:35 436.795
CUBEBUG 1 21 Nov 13:21:45 13:22:11 10° 303° (WNW) 13:22:37 437.445
SPROUT 21 Nov 13:28:15 13:31:53 27° 293° (WNW) 13:35:31 437.525
ITUPSAT 1 21 Nov 13:31:35 13:36:20 54° 100° (E) 13:41:01 437.325
TISAT 1 21 Nov 13:35:14 13:38:25 21° 295° (WNW) 13:41:35 437.305
CUSAT 1 21 Nov 13:44:27 13:47:22 87° 100° (E) 13:50:00 437.405
SWISSCUBE 21 Nov 13:44:36 13:49:27 80° 104° (ESE) 13:54:14 437.505
DANDE 21 Nov 13:47:13 13:50:17 73° 99° (E) 13:52:56 436.750
AO-7 21 Nov 13:49:19 13:56:10 30° 53° (NE) 14:03:03 29.400- 29.500
ITAMSAT 1 21 Nov 13:55:10 14:00:18 58° 259° (W) 14:05:29 435.822/435.867
Gurwin Techsat 1B 21 Nov 13:56:34 14:01:53 85° 75° (ENE) 14:07:14 435.225
STARS 21 Nov 14:02:05 14:04:59 17° 92° (E) 14:07:51 437.465
AUBIESAT-1 21 Nov 14:03:20 14:08:09 60° 293° (WNW) 14:12:58 437.475
M-CUBED/EXP-1 PRIME 21 Nov 14:04:51 14:09:38 54° 294° (WNW) 14:14:26 437.505
BEESAT 21 Nov 14:17:00 14:21:42 55° 289° (WNW) 14:26:22 436.000
YUBILEINY 21 Nov 14:24:02 14:32:49 88° 263° (W) 14:41:30 435.215
KKS-1 21 Nov 14:30:42 14:35:01 48° 100° (E) 14:39:18 437.445
HORYU 2 21 Nov 14:45:12 14:49:36 68° 258° (WSW) 14:54:03 437.375
O/OREOS (USA 219) 21 Nov 14:52:38 14:53:34 11° 44° (NE) 14:54:29 437.305
SO-50 21 Nov 14:59:25 15:02:50 19° 249° (WSW) 15:06:15 436.795
JAS-2 21 Nov 15:09:48 15:16:02 29° 58° (ENE) 15:22:26 435.910
ITUPSAT 1 21 Nov 15:10:22 15:13:50 20° 298° (WNW) 15:17:17 437.325
SWISSCUBE 21 Nov 15:24:08 15:26:40 14° 302° (WNW) 15:29:13 437.505
STARS 21 Nov 15:37:30 15:41:46 50° 289° (WNW) 15:45:59 437.465
AO-7 21 Nov 15:40:00 15:48:17 74° 254° (WSW) 15:56:38 29.400- 29.500
Gurwin Techsat 1B 21 Nov 15:40:02 15:42:32 13° 272° (W) 15:45:04 435.225
AUBIESAT-1 21 Nov 15:41:29 15:42:13 10° 310° (NW) 15:42:57 437.475
RS-15 21 Nov 15:55:49 16:05:16 35° 107° (ESE) 16:14:39 29.354- 29.394
Cubesat XI-IV 21 Nov 15:57:00 15:59:51 15° 56° (NE) 16:02:42 437.490
KKS-1 21 Nov 16:08:11 16:11:20 19° 297° (WNW) 16:14:28 437.445
PHONESAT 2.4 21 Nov 16:14:48 16:15:42 11° 149° (SSE) 16:16:36 2401.200-2431.200
YUBILEINY 21 Nov 16:22:44 16:28:17 19° 284° (WNW) 16:33:50 435.215
O/OREOS (USA 219) 21 Nov 16:29:23 16:33:51 69° 64° (ENE) 16:38:18 437.305
MOZHAYETS 4 21 Nov 16:35:15 16:39:22 30° 95° (E) 16:43:28
CUTE-I 21 Nov 16:37:42 16:42:18 30° 64° (ENE) 16:46:55 437.470
VERMONT LUNAR 21 Nov 16:44:30 16:47:10 19° 157° (SSE) 16:49:49 437.305
MaSat-1 21 Nov 16:45:25 16:48:26 56° 299° (WNW) 16:51:12 437.345
JAS-2 21 Nov 16:52:49 17:00:18 74° 258° (WSW) 17:08:14 435.910
Cubesat XI-IV 21 Nov 17:33:47 17:39:10 88° 75° (ENE) 17:44:35 437.490
AO-7 21 Nov 17:38:07 17:42:28 15° 274° (W) 17:46:52 29.400- 29.500
HO-68 21 Nov 17:49:53 17:52:43 13° 45° (NE) 17:55:34 435.675
PHONESAT 2.4 21 Nov 17:50:32 17:53:48 29° 165° (SSE) 17:57:04 2401.200-2431.200
PRISM 21 Nov 18:01:03 18:05:08 43° 99° (E) 18:09:11 437.425
CUBESAT XI-V 21 Nov 18:02:46 18:06:07 19° 91° (E) 18:09:26 437.345
RS-15 21 Nov 18:05:49 18:16:45 72° 310° (NW) 18:27:46 29.354- 29.394
STRAND 1 21 Nov 18:10:02 18:14:00 22° 93° (E) 18:17:56 437.568
O/OREOS (USA 219) 21 Nov 18:10:41 18:12:39 13° 262° (W) 18:14:37 437.305
MOZHAYETS 4 21 Nov 18:12:28 18:16:34 31° 293° (WNW) 18:20:39
CUTE-I 21 Nov 18:17:11 18:22:13 41° 262° (W) 18:27:17 437.470
GONETS M04 21 Nov 18:17:18 18:24:17 25° 62° (ENE) 18:31:12
VERMONT LUNAR 21 Nov 18:21:47 18:25:10 37° 174° (S) 18:28:34 437.305
JAS-2 21 Nov 18:42:28 18:46:37 15° 278° (W) 18:50:54 435.910
CANX-2 21 Nov 18:53:41 18:55:39 13° 61° (ENE) 18:57:38 2200.000
COMPASS 1 21 Nov 19:11:23 19:13:29 14° 61° (ENE) 19:15:35 437.405
Cubesat XI-IV 21 Nov 19:17:34 19:19:58 13° 272° (W) 19:22:23 437.490
CUTE 1.7 & AOD 2 21 Nov 19:27:14 19:30:43 26° 67° (ENE) 19:34:13 437.475
PHONESAT 2.4 21 Nov 19:28:43 19:32:13 40° 182° (S) 19:35:44 2401.200-2431.200
HO-68 21 Nov 19:31:57 19:38:53 54° 66° (ENE) 19:45:51 435.675
UKube-1 21 Nov 19:34:25 19:36:02 12° 58° (ENE) 19:37:40 .
PRISM 21 Nov 19:37:20 19:40:24 20° 297° (WNW) 19:43:28 437.425
CUBESAT XI-V 21 Nov 19:39:19 19:43:51 49° 289° (WNW) 19:48:20 437.345
DOVE 4 21 Nov 19:47:07 19:50:52 25° 67° (ENE) 19:54:29 437.250
Oscar 11 21 Nov 19:48:17 19:50:58 16° 62° (ENE) 19:53:40 145.826/435.025
STRAND 1 21 Nov 19:48:31 19:53:28 50° 290° (WNW) 19:58:21 437.568
VERMONT LUNAR 21 Nov 20:00:00 20:03:19 33° 191° (S) 20:06:37 437.305
DX 1 21 Nov 20:02:52 20:06:18 23° 64° (ENE) 20:09:44 434.975-435.025
GOMX 1 21 Nov 20:05:22 20:10:04 48° 72° (ENE) 20:14:29 467.674
SEEDS 21 Nov 20:05:53 20:09:59 56° 73° (ENE) 20:14:07 437.485
BRITE-PL 21 Nov 20:08:28 20:13:36 70° 74° (ENE) 20:18:22 437.365/2234.400
SHINDAISAT 21 Nov 20:11:52 20:13:39 34° 239° (WSW) 20:15:24 437.305
GONETS M04 21 Nov 20:13:20 20:22:13 81° 264° (W) 20:31:00
VELOX 1 21 Nov 20:14:05 20:14:40 10° 57° (ENE) 20:15:15 145.980
RS-15 21 Nov 20:21:57 20:31:23 32° 340° (NNW) 20:41:01 29.354- 29.394
AIST 1 21 Nov 20:22:30 20:26:53 83° 97° (E) 20:31:20
BEESAT 3 21 Nov 20:25:20 20:27:30 14° 110° (ESE) 20:29:40 437.485
CANX-2 21 Nov 20:26:52 20:31:03 69° 258° (WSW) 20:35:17 2200.000
ZACube-1 21 Nov 20:27:29 20:30:22 18° 64° (ENE) 20:33:13 437.345
AAUSAT CUBESAT 2 21 Nov 20:32:41 20:36:50 84° 76° (ENE) 20:41:02 437.432
AISAT 21 Nov 20:34:40 20:37:32 17° 61° (ENE) 20:40:24 437.250
BEESAT 2 21 Nov 20:36:09 20:38:47 17° 111° (ESE) 20:41:26 435.950
PCSat 21 Nov 20:44:12 20:49:31 61° 117° (ESE) 20:54:52 145.827
COMPASS 1 21 Nov 20:44:35 20:48:43 64° 259° (W) 20:52:53 437.405
HUMSAT D 21 Nov 20:47:40 20:50:29 18° 64° (ENE) 20:53:18 437.325/437.525
AIST 2 21 Nov 20:50:03 20:51:37 12° 108° (ESE) 20:53:11 435.215
CINEMA 3 21 Nov 20:58:34 21:03:03 77° 75° (ENE) 21:07:21 145.822/145.860
FUNcube-1 21 Nov 21:02:39 21:06:36 39° 71° (ENE) 21:10:31 145.935
DELFI C3 21 Nov 21:02:39 21:06:43 78° 75° (ENE) 21:10:49 145.870
CUTE 1.7 & AOD 2 21 Nov 21:02:48 21:06:33 31° 264° (W) 21:10:20 437.475
CUBEBUG 2 21 Nov 21:05:35 21:09:49 58° 73° (ENE) 21:13:58 437.445
CUBEBUG 1 21 Nov 21:06:54 21:08:59 13° 60° (ENE) 21:11:04 437.445
UKube-1 21 Nov 21:07:12 21:11:33 84° 255° (WSW) 21:15:57 .
PHONESAT 2.4 21 Nov 21:07:31 21:10:36 25° 199° (SSW) 21:13:41 2401.200-2431.200
50 SAT 21 Nov 21:08:31 21:11:47 24° 67° (ENE) 21:15:04 437.505
UWE-3 21 Nov 21:16:04 21:20:19 65° 74° (ENE) 21:24:30 435.000/436.395/437.385
HO-68 21 Nov 21:20:33 21:26:52 33° 265° (W) 21:33:14 435.675
Oscar 11 21 Nov 21:22:31 21:26:44 55° 260° (W) 21:30:59 145.826/435.025
DOVE 4 21 Nov 21:24:06 21:28:30 38° 262° (W) 21:32:42 437.250
ESTCUBE 1 21 Nov 21:28:20 21:31:50 22° 64° (ENE) 21:35:20 437.505/2401.250
VERMONT LUNAR 21 Nov 21:39:09 21:41:13 15° 207° (SSW) 21:43:17 437.305
